Location: *
(53.9002°N, 27.5624°E)
Time: 16:30:06
(UTC+00:00)

Cosmos 1656 - Pass Details

Date: 12 November 2019
Orbit: 800 x 847 km, 71.1° (Epoch: 06 December)

Event Time Altitude Azimuth Distance (km) Brightness Sun altitude
Rises 17:22:31 0° 213° (SSW) 3,355 7.1 -27.3°
Reaches altitude 10° 17:24:57 10° 214° (SW) 2,419 6.4 -27.6°
Enters shadow 17:30:21 82° 273° (W) 831 3.6 -28.4°
